TUI7GT EDLW-EDDN

Flight info

Callsign TUI7GT
Flight time 0h 40m
Altitude 23000
Route GMH8Q GMH DCT ARPEG DCT AMETU DCT KERAX DCT KOMIB T193 ERTES T194 DODAS DODAS1V
Aircraft B738/M-SDE2E3FGHIRWXY/LB1

Departure

Time 2026-05-06 19:16
Airport Dortmund Airport (EDLW)

Arrival

Time 2026-05-06 19:56
Airport Nuremberg Airport (EDDN)
Time Latitude Longitude Altitude Speed Heading
2026-05-06 18:47 51.51649 7.61471 419 ft 0 kts 330°
2026-05-06 19:08 51.51666 7.61456 419 ft 5 kts 330°
2026-05-06 19:08 51.51702 7.61400 418 ft 8 kts 269°
2026-05-06 19:09 51.51672 7.61311 419 ft 9 kts 240°
2026-05-06 19:09 51.51635 7.61206 420 ft 11 kts 240°
2026-05-06 19:09 51.51595 7.61080 423 ft 13 kts 248°
2026-05-06 19:09 51.51555 7.60951 424 ft 11 kts 241°
2026-05-06 19:10 51.51525 7.60865 426 ft 6 kts 240°
2026-05-06 19:10 51.51521 7.60853 426 ft 0 kts 240°
2026-05-06 19:11 51.51515 7.60837 426 ft 3 kts 240°
2026-05-06 19:11 51.51495 7.60779 427 ft 8 kts 240°
2026-05-06 19:11 51.51460 7.60681 429 ft 9 kts 241°
2026-05-06 19:11 51.51434 7.60605 430 ft 6 kts 240°
2026-05-06 19:12 51.51409 7.60535 432 ft 7 kts 240°
2026-05-06 19:12 51.51375 7.60439 435 ft 10 kts 241°
2026-05-06 19:12 51.51357 7.60371 436 ft 0 kts 262°
2026-05-06 19:13 51.51356 7.60366 436 ft 2 kts 268°
2026-05-06 19:14 51.51365 7.60311 437 ft 7 kts 299°
2026-05-06 19:14 51.51415 7.60256 436 ft 9 kts 333°
2026-05-06 19:14 51.51466 7.60222 435 ft 5 kts
2026-05-06 19:14 51.51492 7.60263 433 ft 1 kts 60°
2026-05-06 19:15 51.51493 7.60266 433 ft 0 kts 60°
2026-05-06 19:15 51.51496 7.60273 433 ft 3 kts 59°
2026-05-06 19:15 51.51580 7.60496 427 ft 61 kts 61°
2026-05-06 19:15 51.51931 7.61507 413 ft 140 kts 60°
2026-05-06 19:16 51.52465 7.63028 917 ft 159 kts 59°
2026-05-06 19:16 51.52983 7.64568 1681 ft 165 kts 59°
2026-05-06 19:16 51.53591 7.66238 2183 ft 180 kts 57°
2026-05-06 19:16 51.54211 7.68036 2557 ft 192 kts 58°
2026-05-06 19:17 51.54907 7.69988 2801 ft 212 kts 57°
2026-05-06 19:17 51.55655 7.72106 3322 ft 220 kts 58°
2026-05-06 19:17 51.56307 7.74398 3807 ft 239 kts 75°
2026-05-06 19:17 51.56192 7.77116 4083 ft 258 kts 109°
2026-05-06 19:18 51.55035 7.79364 4743 ft 271 kts 143°
2026-05-06 19:18 51.53334 7.80627 5386 ft 280 kts 166°
2026-05-06 19:18 51.51411 7.80533 6025 ft 285 kts 200°
2026-05-06 19:18 51.49725 7.78984 6860 ft 281 kts 221°
2026-05-06 19:19 51.48122 7.77111 7504 ft 289 kts 208°
2026-05-06 19:19 51.46264 7.75980 8299 ft 290 kts 199°
2026-05-06 19:19 51.44284 7.75333 8982 ft 296 kts 179°
2026-05-06 19:19 51.42321 7.76177 9754 ft 296 kts 148°
2026-05-06 19:20 51.40845 7.78428 10410 ft 301 kts 124°
2026-05-06 19:20 51.39566 7.81217 10684 ft 322 kts 128°
2026-05-06 19:20 51.38082 7.84062 10873 ft 345 kts 129°
2026-05-06 19:20 51.36527 7.87087 10884 ft 361 kts 127°
2026-05-06 19:21 51.35268 7.90501 10873 ft 358 kts 114°
2026-05-06 19:21 51.34303 7.94068 10889 ft 358 kts 112°
2026-05-06 19:21 51.33415 7.97771 10878 ft 357 kts 105°
2026-05-06 19:21 51.32814 8.01573 10888 ft 357 kts 102°
2026-05-06 19:22 51.32176 8.05408 11132 ft 366 kts 111°
2026-05-06 19:22 51.31108 8.09028 12189 ft 359 kts 113°
2026-05-06 19:22 51.30343 8.12851 12685 ft 370 kts 103°
2026-05-06 19:22 51.29790 8.16804 13508 ft 370 kts 102°
2026-05-06 19:23 51.29212 8.20893 14097 ft 378 kts 102°
2026-05-06 19:23 51.28637 8.24982 14865 ft 380 kts 102°
2026-05-06 19:23 51.28070 8.29066 15524 ft 385 kts 102°
2026-05-06 19:23 51.27474 8.33239 16233 ft 388 kts 106°
2026-05-06 19:24 51.26342 8.37116 16776 ft 392 kts 128°
2026-05-06 19:24 51.24461 8.40127 17620 ft 388 kts 141°
2026-05-06 19:24 51.22370 8.42880 18012 ft 396 kts 140°
2026-05-06 19:24 51.20334 8.45787 18254 ft 396 kts 138°
2026-05-06 19:25 51.18315 8.48806 18506 ft 396 kts 137°
2026-05-06 19:25 51.16360 8.51776 18754 ft 397 kts 137°
2026-05-06 19:25 51.14369 8.54840 19204 ft 402 kts 137°
2026-05-06 19:25 51.12456 8.57821 19915 ft 402 kts 136°
2026-05-06 19:26 51.10461 8.60940 20398 ft 408 kts 136°
2026-05-06 19:26 51.08470 8.64142 21027 ft 410 kts 134°
2026-05-06 19:26 51.06690 8.67367 21553 ft 413 kts 133°
2026-05-06 19:26 51.04819 8.70852 22088 ft 416 kts 133°
2026-05-06 19:27 51.02932 8.74324 22418 ft 422 kts 133°
2026-05-06 19:27 51.01022 8.77815 22661 ft 421 kts 133°
2026-05-06 19:27 50.99130 8.81269 22856 ft 422 kts 133°
2026-05-06 19:27 50.97227 8.84732 22869 ft 424 kts 133°
2026-05-06 19:28 50.95306 8.88221 22858 ft 422 kts 133°
2026-05-06 19:28 50.93395 8.91684 22852 ft 421 kts 133°
2026-05-06 19:28 50.91494 8.95123 22845 ft 421 kts 133°
2026-05-06 19:28 50.89670 8.98418 22839 ft 421 kts 133°
2026-05-06 19:29 50.88139 9.01178 22834 ft 421 kts 133°
2026-05-06 19:29 50.84684 9.07398 22831 ft 422 kts 134°
2026-05-06 19:29 50.82686 9.10987 22830 ft 421 kts 134°
2026-05-06 19:30 50.80726 9.14500 22831 ft 421 kts 134°
2026-05-06 19:30 50.78788 9.17972 22831 ft 421 kts 134°
2026-05-06 19:30 50.76896 9.21357 22831 ft 421 kts 134°
2026-05-06 19:30 50.74981 9.24777 22831 ft 421 kts 134°
2026-05-06 19:31 50.73045 9.28228 22831 ft 421 kts 134°
2026-05-06 19:31 50.71153 9.31600 22831 ft 421 kts 134°
2026-05-06 19:31 50.67318 9.38416 22831 ft 422 kts 134°
2026-05-06 19:32 50.65409 9.41801 22831 ft 421 kts 134°
2026-05-06 19:32 50.63508 9.45169 22831 ft 421 kts 134°
2026-05-06 19:32 50.61588 9.48567 22830 ft 421 kts 134°
2026-05-06 19:32 50.59677 9.51944 22831 ft 421 kts 134°
2026-05-06 19:33 50.57758 9.55332 22830 ft 421 kts 134°
2026-05-06 19:33 50.55847 9.58699 22831 ft 421 kts 134°
2026-05-06 19:33 50.53901 9.62123 22831 ft 421 kts 134°
2026-05-06 19:33 50.51984 9.65495 22831 ft 421 kts 135°
2026-05-06 19:34 50.50033 9.68918 22830 ft 420 kts 135°
2026-05-06 19:34 50.48135 9.72245 22831 ft 420 kts 135°
2026-05-06 19:34 50.46185 9.75659 22830 ft 420 kts 135°
2026-05-06 19:34 50.44250 9.79040 22831 ft 420 kts 135°
2026-05-06 19:35 50.42314 9.82422 22831 ft 420 kts 135°
2026-05-06 19:35 50.40384 9.85787 22830 ft 420 kts 135°
2026-05-06 19:35 50.38443 9.89168 22732 ft 413 kts 135°
2026-05-06 19:35 50.36565 9.92436 21823 ft 415 kts 135°
2026-05-06 19:36 50.34639 9.95779 21215 ft 407 kts 135°
2026-05-06 19:36 50.32791 9.98984 20464 ft 404 kts 134°
2026-05-06 19:36 50.30895 10.02266 19729 ft 400 kts 134°
2026-05-06 19:36 50.29058 10.05445 19045 ft 396 kts 134°
2026-05-06 19:37 50.27228 10.08604 18336 ft 392 kts 134°
2026-05-06 19:37 50.25425 10.11714 17754 ft 385 kts 134°
2026-05-06 19:37 50.23657 10.14763 17563 ft 381 kts 134°
2026-05-06 19:37 50.21874 10.17828 17369 ft 387 kts 134°
2026-05-06 19:38 50.20068 10.20931 17166 ft 387 kts 134°
2026-05-06 19:38 50.18237 10.24075 16962 ft 386 kts 134°
2026-05-06 19:38 50.16451 10.27139 16827 ft 383 kts 134°
2026-05-06 19:38 50.14641 10.30176 16825 ft 382 kts 135°
2026-05-06 19:39 50.12780 10.33148 16828 ft 384 kts 136°
2026-05-06 19:39 50.10957 10.36058 16825 ft 384 kts 136°
2026-05-06 19:39 50.09089 10.39053 16825 ft 384 kts 136°
2026-05-06 19:39 50.07230 10.42035 16825 ft 384 kts 136°
2026-05-06 19:40 50.05408 10.44957 16826 ft 384 kts 136°
2026-05-06 19:40 50.03546 10.47941 16825 ft 384 kts 136°
2026-05-06 19:40 50.01693 10.50908 16826 ft 384 kts 136°
2026-05-06 19:40 49.99822 10.53903 16826 ft 384 kts 136°
2026-05-06 19:41 49.97987 10.56835 16826 ft 383 kts 136°
2026-05-06 19:41 49.96128 10.59804 16826 ft 383 kts 136°
2026-05-06 19:41 49.94294 10.62730 16635 ft 376 kts 136°
2026-05-06 19:41 49.92516 10.65565 15723 ft 380 kts 136°
2026-05-06 19:42 49.90822 10.68261 15218 ft 372 kts 136°
2026-05-06 19:42 49.89135 10.70941 14468 ft 373 kts 136°
2026-05-06 19:42 49.87299 10.73854 13777 ft 369 kts 136°
2026-05-06 19:42 49.85598 10.76553 13107 ft 367 kts 136°
2026-05-06 19:43 49.83820 10.79368 12421 ft 363 kts 136°
2026-05-06 19:43 49.82104 10.82085 12249 ft 346 kts 136°
2026-05-06 19:43 49.80448 10.84706 12005 ft 332 kts 137°
2026-05-06 19:43 49.78875 10.87190 11757 ft 321 kts 137°
2026-05-06 19:44 49.77334 10.89622 11505 ft 311 kts 137°
2026-05-06 19:44 49.75863 10.91938 11258 ft 302 kts 137°
2026-05-06 19:44 49.74400 10.94240 10959 ft 296 kts 137°
2026-05-06 19:44 49.72972 10.96483 10509 ft 296 kts 137°
2026-05-06 19:45 49.71543 10.98725 10107 ft 294 kts 137°
2026-05-06 19:45 49.70105 11.00983 9684 ft 293 kts 137°
2026-05-06 19:45 49.68702 11.03184 9248 ft 292 kts 136°
2026-05-06 19:45 49.67273 11.05423 8805 ft 291 kts 136°
2026-05-06 19:46 49.65865 11.07620 8392 ft 290 kts 137°
2026-05-06 19:46 49.64436 11.09858 7956 ft 289 kts 136°
2026-05-06 19:46 49.63054 11.12019 7820 ft 283 kts 136°
2026-05-06 19:46 49.61677 11.14174 7830 ft 278 kts 136°
2026-05-06 19:47 49.60349 11.16246 7817 ft 262 kts 136°
2026-05-06 19:47 49.59195 11.18277 7818 ft 253 kts 123°
2026-05-06 19:47 49.58599 11.20847 7844 ft 259 kts 99°
2026-05-06 19:47 49.58368 11.23621 7684 ft 258 kts 97°
2026-05-06 19:48 49.58117 11.26391 7296 ft 260 kts 98°
2026-05-06 19:48 49.57855 11.29101 7022 ft 257 kts 98°
2026-05-06 19:48 49.57585 11.31843 6499 ft 258 kts 98°
2026-05-06 19:48 49.57315 11.34571 6035 ft 256 kts 98°
2026-05-06 19:49 49.57046 11.37274 5566 ft 254 kts 98°
2026-05-06 19:49 49.56775 11.39935 5120 ft 251 kts 98°
2026-05-06 19:49 49.56505 11.42595 4792 ft 250 kts 98°
2026-05-06 19:49 49.56007 11.45167 4479 ft 248 kts 121°
2026-05-06 19:50 49.54847 11.47032 4185 ft 242 kts 152°
2026-05-06 19:50 49.53257 11.47724 3998 ft 232 kts 180°
2026-05-06 19:50 49.51644 11.47699 4004 ft 235 kts 183°
2026-05-06 19:50 49.50005 11.47589 3987 ft 234 kts 192°
2026-05-06 19:51 49.48550 11.46603 3984 ft 228 kts 223°
2026-05-06 19:51 49.47660 11.44623 3999 ft 224 kts 250°
2026-05-06 19:51 49.47190 11.42323 4001 ft 225 kts 256°
2026-05-06 19:51 49.46867 11.39978 3986 ft 223 kts 266°
2026-05-06 19:52 49.46955 11.37615 3994 ft 223 kts 276°
2026-05-06 19:52 49.47127 11.35272 3983 ft 212 kts 278°
2026-05-06 19:52 49.47342 11.33108 3985 ft 197 kts 278°
2026-05-06 19:52 49.47543 11.31083 3853 ft 187 kts 278°
2026-05-06 19:53 49.47742 11.29108 3599 ft 183 kts 278°
2026-05-06 19:53 49.47934 11.27194 3373 ft 177 kts 278°
2026-05-06 19:53 49.48120 11.25347 3116 ft 172 kts 278°
2026-05-06 19:53 49.48299 11.23562 2899 ft 165 kts 278°
2026-05-06 19:54 49.48470 11.21849 2665 ft 156 kts 278°
2026-05-06 19:54 49.48633 11.20240 2448 ft 148 kts 277°
2026-05-06 19:54 49.48802 11.18676 2141 ft 144 kts 278°
2026-05-06 19:54 49.48951 11.17278 1927 ft 136 kts 273°
2026-05-06 19:55 49.49072 11.15812 1917 ft 134 kts 274°
2026-05-06 19:55 49.49214 11.14343 1729 ft 138 kts 276°
2026-05-06 19:55 49.49377 11.12874 1520 ft 138 kts 276°
2026-05-06 19:55 49.49514 11.11403 1339 ft 138 kts 275°
2026-05-06 19:56 49.49657 11.09958 1144 ft 137 kts 275°
2026-05-06 19:56 49.49793 11.08564 1040 ft 108 kts 279°
2026-05-06 19:56 49.49876 11.07743 1029 ft 60 kts 278°
2026-05-06 19:56 49.49932 11.07179 1022 ft 40 kts 278°
2026-05-06 19:57 49.49930 11.07038 1022 ft 5 kts 224°
2026-05-06 19:57 49.49897 11.07020 1021 ft 5 kts 186°
2026-05-06 19:57 49.49839 11.07038 1020 ft 11 kts 153°
2026-05-06 19:57 49.49768 11.07079 1020 ft 9 kts 156°
2026-05-06 19:58 49.49740 11.07169 1020 ft 11 kts 98°
2026-05-06 19:58 49.49697 11.07233 1020 ft 8 kts 185°
2026-05-06 19:58 49.49648 11.07232 1020 ft 6 kts 147°
2026-05-06 19:58 49.49632 11.07308 1020 ft 8 kts 99°
2026-05-06 19:59 49.49622 11.07410 1021 ft 9 kts 99°
2026-05-06 19:59 49.49612 11.07509 1023 ft 9 kts 98°
2026-05-06 19:59 49.49594 11.07593 1023 ft 3 kts 158°
2026-05-06 19:59 49.49571 11.07593 1023 ft 2 kts 182°
2026-05-06 20:00 49.49549 11.07588 1023 ft 3 kts 189°
2026-05-06 20:00 49.49544 11.07587 1023 ft 0 kts 188°